Printer-friendly version

IAU Minor Planet Center

Minor Planet Center

MPEC 2006-S74 : 2006 SU131

The following Minor Planet Electronic Circular may be linked-to from your own Web pages, but must not otherwise be redistributed electronically.


Read MPEC 2006-S73 Read MPEC 2006-S75


M.P.E.C. 2006-S74                                Issued 2006 Sept. 27, 13:51 UT

     The Minor Planet Electronic Circulars contain information on unusual
         minor planets and routine data on comets.  They are published
   on behalf of Commission 20 of the International Astronomical Union by the
          Minor Planet Center, Smithsonian Astrophysical Observatory,
                          Cambridge, MA 02138, U.S.A.

                  Supported in part by the Brinson Foundation
                  Supported in part by the TABASGO Foundation
             Prepared using the Tamkin Foundation Computer Network

                              MPC@CFA.HARVARD.EDU
          URL http://cfa-www.harvard.edu/iau/mpc.html  ISSN 1523-6714

                                  2006 SU131

Observations:
     K06SD1U* C2006 09 26.44730 03 05 49.12 -05 11 59.3          19.9 V ES074703
     K06SD1U  C2006 09 26.45374 03 05 48.58 -05 12 03.7          19.6 V ES074703
     K06SD1U  C2006 09 26.47485 03 05 47.11 -05 12 15.1          20.3 V ES074703
     K06SD1U  C2006 09 26.48005 03 05 46.78 -05 12 18.1          20.1 V ES074703
     K06SD1U  C2006 09 26.48527 03 05 46.46 -05 12 20.3          20.3 V ES074703
     K06SD1U  C2006 09 26.49046 03 05 46.14 -05 12 23.6          19.8 V ES074703
     K06SD1U  C2006 09 27.43557 03 04 45.12 -05 21 37.4          20.1 V ES074703
     K06SD1U  C2006 09 27.44485 03 04 44.47 -05 21 41.1          20.1 V ES074703
     K06SD1U  C2006 09 27.45412 03 04 43.75 -05 21 46.6          21.1 V ES074703
     K06SD1U  C2006 09 27.47754 03 04 42.20 -05 22 01.2          20.2 V ES074G96
     K06SD1U  C2006 09 27.47914 03 04 42.09 -05 22 02.0          20.0 V ES074G96
     K06SD1U  C2006 09 27.48074 03 04 41.95 -05 22 03.1          20.0 V ES074G96
     K06SD1U  C2006 09 27.48231 03 04 41.84 -05 22 03.7          20.0 V ES074G96

Observer details:
703 Catalina Sky Survey.  Observer R. E. Hill.  Measurers E. C. Beshore,
    E. J. Christensen, G. J. Garradd, A. R. Gibbs, A. D. Grauer, R. E. Hill,
    R. A. Kowalski, S. M. Larson, R. H. McNaught.  0.68-m Schmidt + CCD.
G96 Mt. Lemmon Survey.  Observer R. A. Kowalski.  Measurers E. C. Beshore,
    E. J. Christensen, G. J. Garradd, A. R. Gibbs, A. D. Grauer, R. E. Hill,
    R. A. Kowalski, S. M. Larson, R. H. McNaught.  1.5-m reflector + CCD.

Orbital elements:
2006 SU131                                               Earth MOID = 0.0533 AU
Epoch 2006 Sept. 22.0 TT = JDT 2454000.5                MPC
M  29.39740              (2000.0)            P               Q
n   0.33134409     Peri.  175.80433     +0.44370199     +0.88704284
a   2.0683144      Node   120.49156     -0.82647354     +0.46007944
e   0.4830406      Incl.    8.51607     -0.34651122     +0.03849569
P   2.97           H   19.3           G   0.15
From 13 observations 2006 Sept. 26-27.  E-assumed.

Ephemeris:
2006 SU131               a,e,i = 2.07, 0.48, 9                   q = 1.0692
Date    TT    R. A. (2000) Decl.     Delta      r     Elong.  Phase     V
2006 09 22    03 10.00   -04 26.5    0.562    1.438   131.3    31.7    20.2
2006 10 02    02 59.26   -06 03.2    0.582    1.503   141.9    24.3    20.1
2006 10 12    02 44.80   -07 13.3    0.616    1.569   151.9    17.5    20.1
2006 10 22    02 29.04   -07 46.0    0.667    1.635   158.4    12.9    20.2
2006 11 01    02 14.54   -07 37.2    0.739    1.700   158.0    12.6    20.5
2006 11 11    02 03.19   -06 51.7    0.830    1.765   151.6    15.5    21.0
2006 11 21    01 55.81   -05 38.8    0.940    1.829   143.0    19.0    21.4
2006 12 01    01 52.47   -04 07.4    1.068    1.892   134.1    22.0    21.9

Timothy B. Spahr             (C) Copyright 2006 MPC           M.P.E.C. 2006-S74

Read MPEC 2006-S73 Read MPEC 2006-S75


Our Web policy. Index to the CBAT/MPC/ICQ pages.


Valid HTML 4.01!